INTELSAT 32E (IS-32E)

Last updated on Sun Apr 12 2026 00:02:54 GMT+0000 (Coordinated Universal Time)

1 41945U 17007B 26101.36956972 -.00000267 00000+0 00000+0 0 9999 2 41945 0.0200 227.9043 0000518 43.0946 18.4564 1.00271908 33556
UTC large
Height (km)
Speed (km/s)
/
Latitude / Longitude
Inclination (degrees)
Orbital Period (minutes)
Azimuth
Elevation
Range (km)
Doppler Factor

Next 0 passes for location: London (51.5072 / 0.1276)

Sorry there are no passes over London.
INTELSAT 32E (IS-32E)